Flag for China Weather past 2 weeks in Tsingtao, Shandong, China

Now
81 °F

Passing clouds.


Feels Like: 83 °F
Forecast: 74 / 85 °F
Wind: 6 mph from Southwest

Location: Qingdao Airport

Current Time: Jul 29, 2014 at 1:14:50 PM

Latest Report: Jul 29, 2014 at 12:00 PM


Visibility: N/A

Pressure: 29.74 "Hg

Humidity: 62%

Dew point: 66 °F

Location of TsingtaoLocation

Historic Weather in Tsingtao — Graph

°F

Tsingtao temperature yesterday

Maximum temperature yesterday: 86 °F (at 11:00 AM)
Minimum temperature yesterday: 70 °F (at 3:00 AM)
Average temperature yesterday: 77 °F

Past Weeks' High & Low Weather Summary

 TemperatureHumidityPressure
High99 °F (Jul 19, 2:00 PM)94% (Jul 22, 6:00 PM)29.89 "Hg (Jul 22, 6:00 PM)
Low68 °F (Jul 26, 5:00 AM)32% (Jul 14, 1:00 PM)29.42 "Hg (Jul 25, 8:00 AM)
Average80 °F73%29.72 "Hg
* Reported Jul 14 12:00 Noon — Jul 29 12:00 Noon, Tsingtao, Weather by CustomWeather, © 2014

Note: Actual official high and low records may vary slightly from our data, if they occured in-between our weather recording intervals... More about our weather records

Advertising

Tsingtao weather history for previous 24 hours

 ConditionsComfort  
Time TempWeatherWind HumidityBarometerVisibility
12:00 PM
Jul 29
81 °FPassing clouds.6 mph62%29.74 "HgN/A
11:00 AM81 °FPassing clouds.8 mph62%29.77 "HgN/A
10:00 AM82 °FScattered clouds.8 mph55%29.77 "HgN/A
9:00 AM79 °FScattered clouds.8 mph61%29.77 "Hg4 mi
8:00 AM77 °FFog.8 mph79%29.77 "Hg3 mi
7:00 AM75 °FClear.3 mph78%29.77 "Hg4 mi
6:00 AM68 °FClear.1 mph78%29.74 "Hg4 mi
4:00 AM68 °FClear.1 mph78%29.74 "Hg4 mi
3:00 AM68 °FFog.3 mph83%29.74 "Hg3 mi
2:00 AM68 °FFog.3 mph83%29.74 "Hg3 mi
1:00 AM70 °FFog.3 mph83%29.74 "Hg2 mi
12:00 AM72 °FFog.3 mph88%29.74 "Hg2 mi
11:00 PM
Jul 28
72 °FFog.8 mph88%29.74 "Hg2 mi
10:00 PM72 °FFog.6 mph88%29.74 "Hg2 mi
9:00 PM73 °FFog.8 mph83%29.74 "Hg2 mi
8:00 PM75 °FFog.8 mph78%29.71 "Hg2 mi
7:00 PM77 °FHaze.10 mph61%29.68 "Hg3 mi
6:00 PM79 °FHaze.8 mph54%29.68 "Hg3 mi
5:00 PM81 °FHaze.10 mph48%29.68 "Hg3 mi
4:00 PM82 °FHaze.10 mph45%29.71 "Hg3 mi
3:00 PM84 °FHaze.10 mph45%29.71 "Hg3 mi
2:00 PM86 °FClear.10 mph43%29.74 "Hg4 mi
1:00 PM86 °FHaze.8 mph46%29.74 "Hg3 mi
Weather by CustomWeather, © 2014

See weather overviewHow to use our weather pages